CGJCB KHIO-CYVR

Flight info

Callsign CGJCB
Flight time N/A
Altitude 40000
Route BTG J1 SEA DCT PAE GRIZZ9
Aircraft CL60/M-SADE3FGHIJ3J4J7P2RWXY/HB1D1

Departure

Time 2026-04-28 04:35
Airport Portland Hillsboro Airport (KHIO)

Arrival

Time N/A
Airport Vancouver International Airport (CYVR)
Time Latitude Longitude Altitude Speed Heading
2026-04-28 04:04 45.54075 -122.95533 203 ft 0 kts 325°
2026-04-28 04:28 45.54085 -122.95541 202 ft 7 kts 333°
2026-04-28 04:28 45.54163 -122.95576 201 ft 15 kts 346°
2026-04-28 04:29 45.54249 -122.95588 201 ft 7 kts
2026-04-28 04:29 45.54297 -122.95592 201 ft 0 kts 327°
2026-04-28 04:29 45.54278 -122.95606 201 ft 11 kts 167°
2026-04-28 04:29 45.54275 -122.95537 202 ft 14 kts 43°
2026-04-28 04:30 45.54283 -122.95431 203 ft 13 kts 144°
2026-04-28 04:30 45.54198 -122.95343 203 ft 17 kts 143°
2026-04-28 04:30 45.54092 -122.95232 203 ft 20 kts 143°
2026-04-28 04:30 45.54009 -122.95140 203 ft 11 kts 138°
2026-04-28 04:31 45.53954 -122.95071 203 ft 10 kts 143°
2026-04-28 04:31 45.53883 -122.94997 203 ft 13 kts 143°
2026-04-28 04:31 45.53809 -122.94931 203 ft 9 kts 145°
2026-04-28 04:31 45.53798 -122.94921 203 ft 0 kts 147°
2026-04-28 04:32 45.53788 -122.94910 203 ft 9 kts 146°
2026-04-28 04:32 45.53679 -122.94797 203 ft 26 kts 144°
2026-04-28 04:32 45.53537 -122.94648 203 ft 21 kts 142°
2026-04-28 04:33 45.53460 -122.94539 200 ft 8 kts 79°
2026-04-28 04:33 45.53464 -122.94522 200 ft 0 kts 62°
2026-04-28 04:34 45.53482 -122.94484 199 ft 13 kts 55°
2026-04-28 04:34 45.53532 -122.94447 199 ft 0 kts 320°
2026-04-28 04:34 45.53540 -122.94456 200 ft 19 kts 321°
2026-04-28 04:34 45.53994 -122.94933 205 ft 133 kts 323°
2026-04-28 04:35 45.54869 -122.95855 758 ft 174 kts 323°
2026-04-28 04:35 45.55903 -122.96922 1694 ft 197 kts 324°
2026-04-28 04:35 45.57037 -122.98067 2853 ft 209 kts 323°
2026-04-28 04:35 45.58208 -122.99255 4075 ft 216 kts 332°
2026-04-28 04:36 45.59659 -122.99737 5192 ft 227 kts
2026-04-28 04:36 45.61135 -122.99116 6459 ft 234 kts 27°
2026-04-28 04:36 45.62345 -122.97386 7393 ft 264 kts 59°
2026-04-28 04:36 45.63167 -122.94953 8479 ft 283 kts 64°
2026-04-28 04:37 45.63991 -122.92376 9671 ft 292 kts 65°
2026-04-28 04:37 45.64815 -122.89731 10902 ft 298 kts 65°
2026-04-28 04:37 45.65675 -122.87022 12148 ft 303 kts 65°
2026-04-28 04:37 45.66564 -122.84303 13414 ft 305 kts 65°
2026-04-28 04:38 45.67448 -122.81603 14687 ft 305 kts 64°
2026-04-28 04:38 45.68343 -122.78867 16014 ft 303 kts 63°
2026-04-28 04:38 45.69222 -122.76179 17395 ft 301 kts 61°
2026-04-28 04:38 45.70087 -122.73531 18863 ft 298 kts 59°
2026-04-28 04:39 45.70945 -122.70905 20110 ft 293 kts 58°
2026-04-28 04:39 45.71795 -122.68300 21298 ft 288 kts 58°
2026-04-28 04:39 45.72639 -122.65736 22212 ft 292 kts 57°
2026-04-28 04:39 45.73556 -122.62990 22532 ft 315 kts 56°
2026-04-28 04:40 45.74857 -122.60504 23073 ft 315 kts 34°
2026-04-28 04:40 45.76748 -122.58993 23892 ft 311 kts 14°
2026-04-28 04:40 45.78881 -122.58460 24794 ft 312 kts
2026-04-28 04:40 45.81060 -122.58121 25685 ft 314 kts
2026-04-28 04:41 45.83233 -122.57770 26635 ft 313 kts
2026-04-28 04:41 45.85397 -122.57421 27518 ft 313 kts
2026-04-28 04:41 45.87538 -122.57070 28308 ft 314 kts
2026-04-28 04:41 45.89725 -122.56718 29025 ft 316 kts
2026-04-28 04:42 45.91905 -122.56364 29718 ft 317 kts
2026-04-28 04:42 45.94107 -122.56005 30382 ft 319 kts
2026-04-28 04:42 45.96338 -122.55642 30933 ft 323 kts
2026-04-28 04:42 45.98568 -122.55284 31469 ft 326 kts
2026-04-28 04:43 46.00843 -122.54915 31967 ft 330 kts
2026-04-28 04:43 46.03129 -122.54542 32467 ft 332 kts
2026-04-28 04:43 46.05432 -122.54166 32928 ft 335 kts
2026-04-28 04:43 46.07754 -122.53785 33450 ft 335 kts
2026-04-28 04:44 46.10063 -122.53406 33887 ft 337 kts
2026-04-28 04:44 46.12422 -122.53019 34365 ft 337 kts
2026-04-28 04:44 46.14777 -122.52632 34806 ft 337 kts
2026-04-28 04:44 46.17096 -122.52251 35197 ft 338 kts
2026-04-28 04:45 46.19433 -122.51866 35588 ft 339 kts
2026-04-28 04:45 46.21792 -122.51477 35954 ft 340 kts
2026-04-28 04:45 46.24144 -122.51090 36349 ft 341 kts
2026-04-28 04:45 46.26490 -122.50703 36782 ft 341 kts
2026-04-28 04:46 46.28876 -122.50309 37087 ft 344 kts
2026-04-28 04:46 46.31237 -122.49918 37403 ft 345 kts
2026-04-28 04:46 46.33646 -122.49520 37713 ft 347 kts
2026-04-28 04:46 46.36037 -122.49124 38023 ft 348 kts
2026-04-28 04:47 46.38459 -122.48723 38329 ft 349 kts
2026-04-28 04:47 46.40873 -122.48322 38619 ft 350 kts
2026-04-28 04:47 46.43290 -122.47921 38906 ft 350 kts
2026-04-28 04:47 46.45740 -122.47514 39182 ft 351 kts
2026-04-28 04:48 46.48181 -122.47108 39416 ft 353 kts
2026-04-28 04:48 46.50626 -122.46701 39612 ft 354 kts
2026-04-28 04:48 46.53079 -122.46292 39838 ft 355 kts
2026-04-28 04:48 46.55519 -122.45885 40040 ft 355 kts
2026-04-28 04:49 46.57978 -122.45474 40124 ft 359 kts
2026-04-28 04:49 46.63068 -122.44624 40111 ft 372 kts
2026-04-28 04:50 46.68300 -122.43748 40103 ft 383 kts
2026-04-28 04:50 46.73655 -122.42850 40106 ft 393 kts
2026-04-28 04:51 46.79169 -122.41923 40104 ft 400 kts
2026-04-28 04:51 46.84714 -122.40988 40107 ft 403 kts
2026-04-28 04:52 46.90295 -122.40045 40126 ft 402 kts
2026-04-28 04:52 46.95858 -122.39104 40127 ft 402 kts
2026-04-28 04:53 47.01429 -122.38158 40134 ft 401 kts
2026-04-28 04:53 47.06952 -122.37219 40138 ft 401 kts
2026-04-28 04:54 47.12513 -122.36272 40135 ft 402 kts
2026-04-28 04:54 47.18070 -122.35323 40140 ft 402 kts
2026-04-28 04:55 47.23612 -122.34376 40134 ft 401 kts
2026-04-28 04:55 47.26409 -122.33897 39976 ft 398 kts
2026-04-28 04:55 47.29132 -122.33430 39511 ft 393 kts
2026-04-28 04:55 47.31839 -122.32965 38981 ft 388 kts
2026-04-28 04:56 47.34465 -122.32513 38530 ft 382 kts
2026-04-28 04:56 47.37112 -122.32058 38004 ft 377 kts
2026-04-28 04:56 47.39681 -122.31615 37523 ft 373 kts
2026-04-28 04:56 47.42256 -122.31171 37017 ft 368 kts
2026-04-28 04:57 47.44785 -122.30836 36523 ft 361 kts
2026-04-28 04:57 47.47268 -122.30678 36088 ft 355 kts
2026-04-28 04:57 47.49729 -122.30522 35607 ft 353 kts
2026-04-28 04:57 47.52139 -122.30368 35139 ft 350 kts
2026-04-28 04:58 47.52974 -122.30315 34982 ft 349 kts
2026-04-28 04:58 47.59493 -122.29895 33716 ft 337 kts
2026-04-28 04:58 47.61820 -122.29744 33145 ft 331 kts
2026-04-28 04:59 47.63339 -122.29644 32978 ft 321 kts
2026-04-28 04:59 47.66385 -122.29444 32535 ft 340 kts
2026-04-28 04:59 47.68778 -122.29289 32111 ft 353 kts
2026-04-28 04:59 47.71254 -122.29137 31318 ft 365 kts
2026-04-28 05:00 47.73779 -122.28968 30929 ft 352 kts
2026-04-28 05:00 47.76187 -122.28811 30486 ft 345 kts
2026-04-28 05:00 47.78544 -122.28662 30060 ft 338 kts
2026-04-28 05:00 47.80892 -122.28503 29598 ft 333 kts
2026-04-28 05:01 47.83174 -122.28358 29162 ft 327 kts
2026-04-28 05:01 47.85431 -122.28207 28736 ft 322 kts
2026-04-28 05:01 47.87643 -122.28045 28320 ft 317 kts
2026-04-28 05:01 47.89831 -122.27902 27899 ft 313 kts
2026-04-28 05:02 47.92011 -122.27813 27469 ft 315 kts 356°
2026-04-28 05:02 47.94185 -122.28329 27052 ft 316 kts 349°
2026-04-28 05:02 47.96366 -122.28976 26633 ft 318 kts 349°
2026-04-28 05:02 47.98530 -122.29606 26219 ft 319 kts 349°
2026-04-28 05:03 48.00738 -122.30250 25791 ft 320 kts 349°
2026-04-28 05:03 48.02925 -122.30888 25362 ft 320 kts 349°
2026-04-28 05:03 48.05099 -122.31521 24945 ft 319 kts 349°
2026-04-28 05:03 48.07278 -122.32156 24566 ft 320 kts 349°
2026-04-28 05:04 48.09461 -122.32793 24073 ft 321 kts 349°
2026-04-28 05:04 48.11651 -122.33431 23663 ft 318 kts 349°
2026-04-28 05:04 48.13848 -122.34071 23254 ft 319 kts 349°
2026-04-28 05:04 48.16021 -122.34705 22808 ft 319 kts 349°
2026-04-28 05:05 48.18185 -122.35335 22394 ft 318 kts 349°
2026-04-28 05:05 48.20367 -122.35973 21967 ft 318 kts 349°
2026-04-28 05:05 48.22541 -122.36607 21544 ft 317 kts 349°
2026-04-28 05:05 48.24702 -122.37238 21122 ft 316 kts 349°
2026-04-28 05:06 48.26866 -122.37872 20703 ft 314 kts 349°
2026-04-28 05:06 48.28999 -122.38495 20287 ft 313 kts 349°
2026-04-28 05:06 48.31130 -122.39119 19873 ft 311 kts 349°
2026-04-28 05:06 48.33260 -122.39743 19459 ft 309 kts 349°
2026-04-28 05:07 48.35353 -122.40356 19052 ft 308 kts 349°
2026-04-28 05:07 48.37441 -122.40969 18647 ft 306 kts 349°
2026-04-28 05:07 48.39543 -122.41586 18238 ft 305 kts 349°
2026-04-28 05:07 48.41622 -122.42197 17834 ft 304 kts 349°
2026-04-28 05:08 48.43696 -122.42807 17431 ft 302 kts 349°
2026-04-28 05:08 48.45759 -122.43413 17009 ft 301 kts 349°
2026-04-28 05:08 48.47821 -122.44021 16497 ft 301 kts 349°
2026-04-28 05:08 48.49849 -122.44619 16146 ft 295 kts 349°
2026-04-28 05:09 48.51879 -122.45218 15744 ft 294 kts 349°
2026-04-28 05:09 48.53878 -122.45808 15360 ft 293 kts 349°
2026-04-28 05:09 48.55875 -122.46398 14969 ft 292 kts 349°
2026-04-28 05:09 48.57856 -122.46983 14587 ft 291 kts 349°
2026-04-28 05:10 48.59862 -122.47577 14195 ft 289 kts 349°
2026-04-28 05:10 48.61834 -122.48161 13812 ft 288 kts 348°
2026-04-28 05:10 48.63785 -122.48738 13432 ft 287 kts 348°
2026-04-28 05:10 48.65740 -122.49318 13052 ft 285 kts 348°
2026-04-28 05:11 48.67676 -122.49892 12675 ft 284 kts 348°
2026-04-28 05:11 48.69637 -122.50481 12292 ft 282 kts 347°
2026-04-28 05:11 48.71420 -122.51576 11898 ft 280 kts 326°
2026-04-28 05:11 48.72844 -122.53574 11790 ft 274 kts 314°
2026-04-28 05:12 48.74174 -122.55686 11773 ft 281 kts 315°
2026-04-28 05:12 48.75538 -122.57836 11646 ft 281 kts 315°
2026-04-28 05:12 48.76904 -122.59989 11552 ft 282 kts 315°
2026-04-28 05:12 48.78261 -122.62131 11447 ft 282 kts 315°
2026-04-28 05:13 48.79620 -122.64278 11338 ft 282 kts 315°
2026-04-28 05:13 48.81002 -122.66466 11230 ft 282 kts 314°
2026-04-28 05:13 48.82362 -122.68617 11122 ft 282 kts 314°
2026-04-28 05:13 48.83704 -122.70745 11016 ft 282 kts 314°
2026-04-28 05:14 48.85067 -122.72907 10910 ft 281 kts 314°
2026-04-28 05:14 48.86421 -122.75056 10803 ft 281 kts 314°
2026-04-28 05:14 48.87790 -122.77230 10695 ft 281 kts 314°
2026-04-28 05:14 48.89142 -122.79381 10589 ft 281 kts 314°
2026-04-28 05:15 48.90498 -122.81539 10482 ft 281 kts 313°
2026-04-28 05:15 48.91835 -122.83669 10377 ft 279 kts 313°
2026-04-28 05:15 48.93171 -122.85800 10306 ft 271 kts 313°
2026-04-28 05:15 48.94456 -122.87849 10177 ft 267 kts 313°
2026-04-28 05:16 48.95717 -122.89868 10081 ft 259 kts 313°
2026-04-28 05:16 48.96966 -122.91865 9974 ft 258 kts 313°
2026-04-28 05:16 48.98224 -122.93877 9799 ft 259 kts 313°